Weather History for Dumas, TX

Change the Weather History Date:

Wednesday, April 10, 2013

  Actual Average (KBGD) Record (KBGD)
Temperature  
Mean Temperature 29 °F 57 °F  
Max Temperature 42 °F 71 °F 92 °F (1972)
Min Temperature 16 °F 43 °F 21 °F (1952)
Degree Days  
Heating Degree Days 36 9  
Month to date heating degree days 98  
Since 1 July heating degree days 3575  
Cooling Degree Days 0 1  
Month to date cooling degree days 7  
Year to date cooling degree days 14  
Moisture  
Dew Point 6 °F    
Average Humidity 42    
Maximum Humidity 56    
Minimum Humidity 26    
Precipitation  
Precipitation 0.00 in 0.06 in 0.46 in (1981)
Month to date precipitation 0.56  
Year to date precipitation 3.18  
Snow  
Snow 0.00 in - 1.50 in (1989)
Month to date snowfall  
Since 1 July snowfall  
Snow Depth -    
Sea Level Pressure  
Sea Level Pressure 30.02 in    
Wind  
Wind Speed 26 mph (NNW)    
Max Wind Speed 37 mph    
Max Gust Speed 44 mph    
Visibility 10 miles    
Events      
T = Trace of Precipitation, MM = Missing Value Source: NWS Daily Summary

Daily Weather History Graph

Daily Weather History Graph

Search for Another Location

Airport:

Trip Planner

Search our weather history database for the weather conditions in past years. The results will help you decide how hot, cold, wet, or windy it might be!

Date:

Astronomy

Apr. 10, 2013 Rise Set
Actual Time 7:21 AM CDT 8:17 PM CDT
Civil Twilight 6:55 AM CDT 8:43 PM CDT
Nautical Twilight 6:24 AM CDT 9:14 PM CDT
Astronomical Twilight 5:52 AM CDT 9:46 PM CDT
Moon 7:19 AM CDT (4/10) 8:53 PM CDT (4/10)
Length of Visible Light 13h 48m
Length of Day
12h 56m
New Moon, 0% of the Moon is Illuminated
Apr 10
New Moon
Apr 18
First Quarter
Apr 25
Full
May 2
Last Quarter
May 9
New

Hourly Weather History & Observations

Time (CDT) Temp. Windchill Dew Point Humidity Pressure Visibility Wind Dir Wind Speed Gust Speed Precip Events Conditions
12:15 AM 21.9 °F 2.4 °F 7.3 °F 54% 30.00 in 10.0 mi North 36.8 mph 43.7 mph N/A   Clear
12:35 AM 21.9 °F 2.4 °F 6.8 °F 52% 30.00 in 10.0 mi NNW 36.8 mph 43.7 mph N/A   Clear
12:55 AM 21.4 °F 2.9 °F 6.6 °F 53% 30.04 in 10.0 mi North 31.1 mph 41.4 mph N/A   Clear
1:15 AM 21.4 °F 3.8 °F 6.1 °F 52% 30.04 in 10.0 mi North 27.6 mph 40.3 mph N/A   Clear
1:35 AM 21.2 °F 4.2 °F 5.9 °F 52% 30.01 in 10.0 mi North 25.3 mph 40.3 mph N/A   Clear
1:55 AM 20.7 °F 3.5 °F 5.5 °F 52% 30.04 in 10.0 mi North 25.3 mph 43.7 mph N/A   Clear
2:15 AM 20.8 °F 2.2 °F 5.9 °F 53% 30.02 in 10.0 mi North 31.1 mph 40.3 mph N/A   Clear
2:35 AM 20.3 °F 0.7 °F 5.7 °F 53% 30.04 in 10.0 mi North 34.5 mph 41.4 mph N/A   Clear
2:55 AM 19.9 °F 1.0 °F 4.1 °F 50% 30.03 in 10.0 mi North 31.1 mph 43.7 mph N/A   Clear
3:15 AM 19.9 °F 1.0 °F 4.5 °F 51% 30.04 in 10.0 mi North 31.1 mph 42.6 mph N/A   Clear
3:35 AM 19.2 °F 1.5 °F 4.1 °F 52% 30.04 in 10.0 mi North 25.3 mph 38.0 mph N/A   Clear
3:55 AM 19.0 °F 1.3 °F 3.7 °F 51% 30.07 in 10.0 mi North 25.3 mph 34.5 mph N/A   Clear
4:15 AM 18.7 °F 1.9 °F 3.9 °F 53% 30.06 in 10.0 mi North 21.9 mph 31.1 mph N/A   Clear
4:35 AM 18.5 °F -0.1 °F 3.9 °F 53% 30.08 in 10.0 mi North 27.6 mph 34.5 mph N/A   Clear
4:55 AM 18.1 °F 0.1 °F 3.9 °F 54% 30.06 in 10.0 mi North 25.3 mph 34.5 mph N/A   Clear
5:15 AM 17.6 °F -1.6 °F 3.4 °F 54% 30.02 in 10.0 mi North 28.8 mph 39.1 mph N/A   Clear
5:35 AM 17.6 °F -2.5 °F 3.7 °F 55% 30.02 in 10.0 mi North 32.2 mph 39.1 mph N/A   Clear
5:55 AM 17.4 °F -2.8 °F 3.9 °F 56% 30.01 in 10.0 mi NNW 32.2 mph 38.0 mph N/A   Clear
6:15 AM 17.1 °F -2.7 °F 3.2 °F 55% 30.04 in 10.0 mi North 29.9 mph 35.7 mph N/A   Clear
6:35 AM 17.1 °F -2.4 °F 3.2 °F 55% 30.03 in 10.0 mi North 28.8 mph 41.4 mph N/A   Clear
6:55 AM 16.7 °F -2.8 °F 3.2 °F 55% 30.05 in 10.0 mi North 28.8 mph 36.8 mph N/A   Clear
7:15 AM 17.1 °F -1.4 °F 3.6 °F 56% 30.06 in 10.0 mi North 25.3 mph 34.5 mph N/A   Clear
7:35 AM 17.2 °F -1.1 °F 3.7 °F 56% 30.08 in 10.0 mi NNW 25.3 mph 31.1 mph N/A   Scattered Clouds
7:55 AM 17.2 °F -2.4 °F 3.6 °F 55% 30.06 in 10.0 mi North 29.9 mph 36.8 mph N/A   Scattered Clouds
8:15 AM 17.4 °F -1.5 °F 3.9 °F 56% 30.08 in 10.0 mi NNW 27.6 mph 35.7 mph N/A   Mostly Cloudy
8:35 AM 18.3 °F -0.6 °F 4.1 °F 54% 30.07 in 10.0 mi NNW 28.8 mph 38.0 mph N/A   Overcast
8:55 AM 19.0 °F 0.0 °F 4.1 °F 52% 30.07 in 10.0 mi North 29.9 mph 36.8 mph N/A   Mostly Cloudy
9:15 AM 19.9 °F 1.3 °F 4.5 °F 51% 30.09 in 10.0 mi NNW 29.9 mph 34.5 mph N/A   Mostly Cloudy
9:35 AM 20.7 °F 2.5 °F 4.6 °F 50% 30.10 in 10.0 mi NNW 28.8 mph - N/A   Mostly Cloudy
9:55 AM 20.8 °F 2.8 °F 4.3 °F 49% 30.10 in 10.0 mi North 28.8 mph 35.7 mph N/A   Mostly Cloudy
10:15 AM 22.8 °F 5.4 °F 4.6 °F 46% 30.09 in 10.0 mi North 28.8 mph 34.5 mph N/A   Scattered Clouds
10:35 AM 24.1 °F 7.4 °F 4.5 °F 43% 30.06 in 10.0 mi North 27.6 mph 35.7 mph N/A   Clear
10:55 AM 24.8 °F 8.1 °F 4.6 °F 42% 30.07 in 10.0 mi NNW 28.8 mph 41.4 mph N/A   Clear
11:15 AM 25.7 °F 10.2 °F 4.6 °F 41% 30.07 in 10.0 mi North 25.3 mph 35.7 mph N/A   Scattered Clouds
11:35 AM 27.5 °F 11.3 °F 4.6 °F 38% 30.07 in 10.0 mi NNW 31.1 mph 36.8 mph N/A   Scattered Clouds
12:15 PM 29.7 °F 14.7 °F 5.0 °F 35% 30.07 in 10.0 mi NNW 28.8 mph 35.7 mph N/A   Clear
1:35 PM 34.3 °F 22.0 °F 6.1 °F 31% 30.03 in 10.0 mi North 24.2 mph 33.4 mph N/A   Clear
1:55 PM 35.6 °F 23.2 °F 6.6 °F 30% 30.03 in 10.0 mi NNW 26.5 mph 33.4 mph N/A   Clear
2:15 PM 37.6 °F 26.1 °F 9.0 °F 31% 30.02 in 10.0 mi NNW 25.3 mph 32.2 mph N/A   Clear
2:35 PM 37.6 °F 27.1 °F 9.1 °F 31% 30.00 in 10.0 mi NNW 20.7 mph 29.9 mph N/A   Clear
2:55 PM 38.5 °F 28.3 °F 9.1 °F 30% 30.00 in 10.0 mi NNW 20.7 mph 31.1 mph N/A   Clear
3:15 PM 38.3 °F 27.8 °F 10.0 °F 31% 29.98 in 10.0 mi North 21.9 mph 29.9 mph N/A   Clear
3:35 PM 39.2 °F 30.2 °F 10.0 °F 30% 29.98 in 10.0 mi North 17.3 mph 23.0 mph N/A   Clear
3:55 PM 39.9 °F 31.4 °F 9.9 °F 29% 29.98 in 10.0 mi North 16.1 mph 25.3 mph N/A   Clear
4:15 PM 41.0 °F 32.5 °F 10.2 °F 28% 29.97 in 10.0 mi NW 17.3 mph 24.2 mph N/A   Clear
4:35 PM 40.6 °F 32.3 °F 10.0 °F 29% 29.96 in 10.0 mi NNW 16.1 mph 27.6 mph N/A   Clear
4:55 PM 41.5 °F 34.2 °F 9.9 °F 27% 29.95 in 10.0 mi North 13.8 mph 26.5 mph N/A   Clear
5:15 PM 41.7 °F 33.1 °F 10.0 °F 27% 29.95 in 10.0 mi NNW 18.4 mph 24.2 mph N/A   Clear
5:35 PM 42.6 °F 34.0 °F 9.7 °F 26% 29.94 in 10.0 mi NNW 19.6 mph 26.5 mph N/A   Clear
5:55 PM 42.6 °F 34.3 °F 9.3 °F 26% 29.93 in 10.0 mi NNW 18.4 mph 21.9 mph N/A   Clear
6:15 PM 41.9 °F 32.8 °F 8.6 °F 26% 29.93 in 10.0 mi NNW 20.7 mph 26.5 mph N/A   Clear
6:35 PM 41.2 °F 32.4 °F 8.6 °F 26% 29.94 in 10.0 mi NNW 18.4 mph 25.3 mph N/A   Clear
6:55 PM 40.3 °F 31.9 °F 7.7 °F 26% 29.94 in 10.0 mi North 16.1 mph 24.2 mph N/A   Clear
7:15 PM 40.1 °F 31.6 °F 7.7 °F 26% 29.95 in 10.0 mi NNW 16.1 mph - N/A   Clear
7:35 PM 39.6 °F 30.6 °F 7.7 °F 27% 29.95 in 10.0 mi NNW 17.3 mph - N/A   Clear
7:55 PM 38.5 °F 29.6 °F 7.7 °F 28% 29.96 in 10.0 mi North 16.1 mph 20.7 mph N/A   Clear
8:15 PM 36.5 °F 29.2 °F 7.7 °F 30% 29.96 in 10.0 mi NNW 10.4 mph - N/A   Clear
8:35 PM 34.3 °F 27.7 °F 7.9 °F 33% 29.97 in 10.0 mi NNW 8.1 mph - N/A   Clear
8:55 PM 32.2 °F 26.7 °F 8.6 °F 37% 29.98 in 10.0 mi NNW 5.8 mph - N/A   Clear
9:15 PM 32.0 °F 24.2 °F 8.2 °F 37% 29.98 in 10.0 mi NNW 9.2 mph - N/A   Clear
9:35 PM 31.8 °F 26.2 °F 9.0 °F 38% 30.00 in 10.0 mi NW 5.8 mph - N/A   Clear
9:55 PM 30.6 °F 24.7 °F 8.1 °F 39% 30.00 in 10.0 mi NW 5.8 mph - N/A   Clear
10:15 PM 29.1 °F 20.6 °F 7.7 °F 41% 30.00 in 10.0 mi NNW 9.2 mph - N/A   Clear
10:35 PM 28.4 °F 21.2 °F 8.4 °F 43% 30.01 in 10.0 mi NNW 6.9 mph - N/A   Clear
10:55 PM 28.4 °F 21.2 °F 8.2 °F 43% 30.01 in 10.0 mi NNW 6.9 mph - N/A   Clear
11:15 PM 29.3 °F 22.3 °F 8.8 °F 42% 30.01 in 10.0 mi North 6.9 mph - N/A   Clear
11:35 PM 27.3 °F 19.1 °F 8.8 °F 46% 30.01 in 10.0 mi North 8.1 mph - N/A   Clear
11:55 PM 25.2 °F 17.3 °F 8.2 °F 49% 30.01 in 10.0 mi North 6.9 mph - N/A   Clear